Location: Beverley
(50.2667°N, 107.9667°W)
Time: 01:46:31
(UTC+00:00)

EO-79 - Visible Passes

Search period start: 30 June 2022 00:00
Search period end: 10 July 2022 00:00
Orbit: 587 x 605 km, 98.0° (Epoch: 29 June)

Date Brightness Start Highest point End Pass type
(mag) Time Alt. Az. Time Alt. Az. Time Alt. Az.
30 Jun ? 08:51:27 10° NNE 08:55:39 62° ESE 08:58:43 18° S visible
01 Jul ? 09:01:21 10° NNE 09:05:35 78° ESE 09:08:43 18° S visible
02 Jul ? 07:37:40 10° ENE 07:39:17 12° E 07:40:53 10° ESE visible
02 Jul ? 09:11:15 10° NNE 09:15:30 84° WNW 09:18:43 17° SSW visible
03 Jul ? 07:46:54 10° NE 07:49:19 15° E 07:51:44 10° SE visible
03 Jul ? 09:21:11 10° N 09:25:24 68° WNW 09:28:43 16° SSW visible
04 Jul ? 07:56:22 10° NE 07:59:20 18° E 08:02:03 11° SE visible
04 Jul ? 09:31:08 10° N 09:35:17 54° WNW 09:38:43 14° SW visible
05 Jul ? 08:05:59 10° NE 08:09:20 22° E 08:12:02 13° SE visible
05 Jul ? 09:41:07 10° N 09:45:09 44° WNW 09:48:42 13° SW visible
06 Jul ? 08:15:40 10° NE 08:19:20 27° E 08:22:02 15° SE visible
06 Jul ? 09:51:08 10° N 09:55:00 36° WNW 09:58:41 11° SW visible
07 Jul ? 08:25:24 10° NNE 08:29:17 34° E 08:32:00 17° SSE visible
07 Jul ? 10:01:10 10° N 10:04:51 29° WNW 10:08:32 10° SW visible
08 Jul ? 08:35:11 10° NNE 08:39:14 42° E 08:41:59 18° SSE visible
08 Jul ? 10:11:14 10° N 10:14:40 24° WNW 10:18:06 10° WSW visible
09 Jul ? 08:45:01 10° NNE 08:49:11 52° E 08:51:58 20° S visible
09 Jul ? 10:21:20 10° NNW 10:24:29 21° WNW 10:27:37 10° WSW visible
